Monday, February 13, 2023
←Prev Day | Next Day→      ALL | 10-K/Q | Earnings

Company Ticker Filing DATE FP FY End Date URL VIEW
Banco BTG Pactual SA BPAC11.SA WIREPR 2/13/2023 Q4 2022 12/31/2022 WIRE view data
Vamos VAMO3.SA WIREPR 2/13/2023 Q4 2022 12/31/2022 WIRE view data
Bunker Hill Mining Corp. BHLL S-1/A 2/13/2023 Q3 2022 9/30/2022 SEC view
Seven Hills Realty Trust SEVN 10-K 2/13/2023 Q4 2022 12/31/2022 SEC view
Arisz Acquisition Corp. ARIZ 10-Q 2/13/2023 Q1 2023 12/31/2022 SEC view
Capitalworks Emerging Markets Acquisition Corp CMCAU 10-Q 2/13/2023 Q3 2022 12/31/2022 SEC view
Angion Biomedica Corp. ELTX S-4 2/13/2023 Q3 2022 9/30/2022 SEC view
Sharps Technology Inc. STSS S-1 2/13/2023 Q3 2022 9/30/2022 SEC view
INNOVATIVE DESIGNS INC IVDN 10-K 2/13/2023 Q4 2022 10/31/2022 SEC view
Regenicin, Inc. RGIN 10-Q 2/13/2023 Q1 2023 12/31/2022 SEC view
MARIZYME INC MRZM S-1/A 2/13/2023 Q3 2022 9/30/2022 SEC view
Aeluma, Inc. ALMU 10-Q 2/13/2023 Q2 2023 12/31/2022 SEC view
ENCISION INC ECIA 10-Q 2/13/2023 Q3 2023 12/31/2022 SEC view
NIOCORP DEVELOPMENTS LTD NB 10-Q 2/13/2023 Q2 2023 12/31/2022 SEC view
Outset Medical, Inc. OM 10-K 2/13/2023 Q4 2022 12/31/2022 SEC view
MARSH & MCLENNAN COMPANIES, INC. MRSH 10-K 2/13/2023 Q4 2022 12/31/2022 SEC view
FIRSTENERGY CORP FE 10-K 2/13/2023 Q4 2022 12/31/2022 SEC view
InFinT Acquisition Corp CURR S-4/A 2/13/2023 Q3 2022 9/30/2022 SEC view
Algoma Steel Group Inc. ASTL WIREPR 2/13/2023 Q3 2023 12/30/2022 WIRE view data
ALASKA AIR GROUP, INC. ALK 10-K 2/13/2023 Q4 2022 12/31/2022 SEC view
AETHLON MEDICAL INC AEMD 10-Q 2/13/2023 Q3 2023 12/31/2022 SEC view
GlobeStar Therapeutics Corp GSTC 10-Q 2/13/2023 Q1 2023 12/31/2022 SEC view
Capstone Green Energy Corp CGEH 8-K 2/13/2023 Q3 2023 12/31/2022 SEC view data
Associated Capital Group, Inc. AC 8-K 2/13/2023 Q4 2022 12/31/2022 SEC view data
ESPEY MFG & ELECTRONICS CORP ESP 10-Q 2/13/2023 Q2 2023 12/31/2022 SEC view
Modular Medical, Inc. MODD 10-Q 2/13/2023 Q3 2023 12/31/2022 SEC view
ADVANCED OXYGEN TECHNOLOGIES INC AOXY 10-Q 2/13/2023 Q2 2022 12/31/2022 SEC view
Hanover Bancorp, Inc. /NY HNVR 10-Q 2/13/2023 Q1 2023 12/31/2022 SEC view
Beyond Air, Inc. XAIR 8-K 2/13/2023 Q3 2023 12/31/2022 SEC view data
Seven Hills Realty Trust SEVN 8-K 2/13/2023 Q4 2022 12/31/2022 SEC view data
DAILY JOURNAL CORP DJCO 10-Q 2/13/2023 Q1 2023 12/31/2022 SEC view
Great Elm Group, Inc. GEG 10-Q 2/13/2023 Q2 2023 12/31/2022 SEC view
James Hardie Industries plc JHX WIREPR 2/13/2023 Q3 2023 12/30/2022 WIRE view data
VORNADO REALTY TRUST VNO 8-K 2/13/2023 Q4 2022 12/31/2022 SEC view data
VORNADO REALTY LP VRLP 8-K 2/13/2023 Q4 2022 12/30/2022 SEC view data
ETF Managers Group Commodity Trust I BDRY 10-Q 2/13/2023 Q2 2023 12/31/2022 SEC view
GIGA TRONICS INC GIGA S-1 2/13/2023 Q3 2022 9/30/2022 SEC view
AMERICAN HONDA FINANCE CORP HMC/26A 10-Q 2/13/2023 Q3 2023 12/31/2022 SEC view
LanzaTech Global, Inc. LNZA S-1 2/13/2023 Q3 2022 9/30/2022 SEC view
Medpace Holdings, Inc. MEDP 8-K 2/13/2023 Q4 2022 12/31/2022 SEC view data
Great Elm Group, Inc. GEG 8-K 2/13/2023 Q2 2023 12/31/2022 SEC view data
MRC GLOBAL INC. MRC 8-K 2/13/2023 Q4 2022 12/31/2022 SEC view data
VMG Consumer Acquisition Corp. VMGAU 10-Q 2/13/2023 Q1 2023 12/31/2022 SEC view
ASTROTECH Corp ASTC 10-Q 2/13/2023 Q2 2023 12/31/2022 SEC view
Energy Services of America CORP ESOA 10-Q 2/13/2023 Q1 2023 12/31/2022 SEC view
Edwards Lifesciences Corp EW 10-K 2/13/2023 Q4 2022 12/31/2022 SEC view
DATASEA INC. DTSS 10-Q 2/13/2023 Q2 2023 12/31/2022 SEC view
PARKS AMERICA, INC PRKA 10-Q 2/13/2023 Q1 2023 1/1/2023 SEC view
D-Wave Quantum Inc. QBTS S-1 2/13/2023 Q3 2022 9/30/2022 SEC view
IROBOT CORP IRBT 8-K 2/13/2023 Q4 2022 12/31/2022 SEC view data
Daily Journal Corp DJCO WIREPR 2/13/2023 Q1 2023 12/31/2022 WIRE view data
Investcorp Credit Management BDC, Inc. ICMB WIREPR 2/13/2023 Q2 2023 12/31/2022 WIRE view data
IIOT-OXYS, Inc. ITOX S-1 2/13/2023 Q3 2022 9/30/2022 SEC view
PATTERSON UTI ENERGY INC PTEN 10-K 2/13/2023 Q4 2022 12/31/2022 SEC view
ASSOCIATED BANC-CORP ASB 10-K 2/13/2023 Q4 2022 12/31/2022 SEC view
MOLINA HEALTHCARE, INC. MOH 10-K 2/13/2023 Q4 2022 12/31/2022 SEC view
TreeHouse Foods, Inc. THS 10-K 2/13/2023 Q4 2022 12/31/2022 SEC view
IMPINJ INC PI 10-K 2/13/2023 Q4 2022 12/31/2022 SEC view
FARADAY FUTURE INTELLIGENT ELECTRIC INC. FFAI S-1 2/13/2023 Q3 2022 9/30/2022 SEC view
Investcorp Credit Management BDC, Inc. ICMB 10-Q 2/13/2023 Q2 2023 12/31/2022 SEC view
FIRSTENERGY CORP FE 8-K 2/13/2023 Q4 2022 12/31/2022 SEC view data
ALBANY INTERNATIONAL CORP /DE/ AIN 8-K 2/13/2023 Q4 2022 12/31/2022 SEC view data
Energy Services of America CORP ESOA 8-K 2/13/2023 Q1 2023 12/31/2022 SEC view data
Angi Inc. ANGI 8-K 2/13/2023 Q4 2022 12/31/2022 SEC view data
Bank of N.T. Butterfield & Son Ltd NTB WIREPR 2/13/2023 Q4 2022 12/31/2022 WIRE view data
BLACKBAUD INC BLKB 8-K 2/13/2023 Q4 2022 12/31/2022 SEC view data
PARKS AMERICA, INC PRKA 8-K 2/13/2023 Q1 2023 1/1/2023 SEC view data
Ault Alliance, Inc. GPUS 8-K 2/13/2023 Q4 2022 12/31/2022 SEC view data
IAC Inc. IAC 8-K 2/13/2023 Q4 2022 12/31/2022 SEC view data
MariaDB plc MRDB 10-Q 2/13/2023 Q1 2023 12/31/2022 SEC view
Alpine Auto Brokers Inc. ALTB 10-K 2/13/2023 Q4 2022 12/31/2022 SEC view
NuZee, Inc. IMG 10-Q 2/13/2023 Q1 2023 12/31/2022 SEC view
VORNADO REALTY TRUST VNO 10-K 2/13/2023 Q4 2022 12/31/2022 SEC view
CADENCE DESIGN SYSTEMS INC CDNS 10-K 2/13/2023 Q4 2022 12/31/2022 SEC view
NEUROONE MEDICAL TECHNOLOGIES Corp NMTC 10-Q 2/13/2023 Q1 2023 12/31/2022 SEC view
AT&T INC. T 10-K 2/13/2023 Q4 2022 12/31/2022 SEC view
Pluri Inc. PLUR 10-Q 2/13/2023 Q2 2023 12/31/2022 SEC view
Brixmor Property Group Inc. BRX 10-K 2/13/2023 Q4 2022 12/31/2022 SEC view
NSTAR ELECTRIC CO CIK0000013372 8-K 2/13/2023 Q4 2022 12/30/2022 SEC view data
EVERSOURCE ENERGY ES 8-K 2/13/2023 Q4 2022 12/31/2022 SEC view data
CLEVELAND-CLIFFS INC. CLF 8-K 2/13/2023 Q4 2022 12/31/2022 SEC view data
Outset Medical, Inc. OM 8-K 2/13/2023 Q4 2022 12/31/2022 SEC view data
BARNWELL INDUSTRIES INC BRN 10-Q 2/13/2023 Q1 2023 12/31/2022 SEC view
Farmmi, Inc. FAMI 20-F 2/13/2023 Q4 2022 9/30/2022 SEC view
cbdMD, Inc. YCBD 10-Q 2/13/2023 Q1 2023 12/31/2022 SEC view
Jerash Holdings (US), Inc. JRSH 10-Q 2/13/2023 Q3 2023 12/31/2022 SEC view
VISTA GOLD CORP VGZ 10-K/A 2/13/2023 Q4 2021 12/31/2021 SEC view
Optex Systems Holdings Inc OPXS 10-Q 2/13/2023 Q1 2023 1/1/2023 SEC view
Landbay Inc CIK0001672572 10-Q 2/13/2023 Q3 2023 12/31/2022 SEC view
Horizon Space Acquisition I Corp. HSPO 10-K 2/13/2023 Q4 2022 12/31/2022 SEC view
Espey Mfg & Electronics Corp ESP WIREPR 2/13/2023 Q2 2023 12/31/2022 WIRE view data
Inotiv, Inc. NOTV 8-K 2/13/2023 Q1 2023 12/31/2022 SEC view data
KITE REALTY GROUP TRUST KRG 8-K 2/13/2023 Q4 2022 12/31/2022 SEC view data
ARCH CAPITAL GROUP LTD. ACGL 8-K 2/13/2023 Q4 2022 12/31/2022 SEC view data
DENNY'S Corp DENN 8-K 2/13/2023 Q4 2022 12/28/2022 SEC view data
AMKOR TECHNOLOGY, INC. AMKR 8-K 2/13/2023 Q4 2022 12/31/2022 SEC view data
Palantir Technologies Inc. PLTR 8-K 2/13/2023 Q4 2022 12/31/2022 SEC view data
INSTRUCTURE HOLDINGS, INC. INST 8-K 2/13/2023 Q4 2022 12/31/2022 SEC view data
AVIS BUDGET GROUP, INC. CAR 8-K 2/13/2023 Q4 2022 12/31/2022 SEC view data
AETHLON MEDICAL INC AEMD 8-K 2/13/2023 Q3 2023 12/31/2022 SEC view data
SOLAREDGE TECHNOLOGIES, INC. SEDG 8-K 2/13/2023 Q4 2022 12/31/2022 SEC view data
Brixmor Property Group Inc. BRX 8-K 2/13/2023 Q4 2022 12/31/2022 SEC view data
Arista Networks, Inc. ANET 8-K 2/13/2023 Q4 2022 12/31/2022 SEC view data
MariaDB plc MRDB 8-K 2/13/2023 Q1 2023 12/31/2022 SEC view data
Vitesse Energy, Inc. VTS 8-K 2/13/2023 Q4 2022 12/31/2022 SEC view data
CADENCE DESIGN SYSTEMS INC CDNS 8-K 2/13/2023 Q4 2022 12/31/2022 SEC view data
ADMIRAL FINANCIAL CORP ADMIRAL 10-Q 2/13/2023 Q2 2023 12/31/2022 SEC view
Monetiva Inc. CIK0001681309 S-1/A 2/13/2023 Q3 2020 9/30/2020 SEC view
LATTICE SEMICONDUCTOR CORP LSCC 8-K 2/13/2023 Q4 2022 12/31/2022 SEC view data
Optex Systems Holdings Inc OPXS WIREPR 2/13/2023 Q1 2023 1/1/2023 WIRE view data
Farmmi, Inc. FAMI WIREPR 2/13/2023 Q4 2022 9/30/2022 WIRE view data
SkyWater Technology, Inc SKYT 8-K 2/13/2023 Q4 2022 1/1/2023 SEC view data
SOUTHERN FIRST BANCSHARES INC SFST 10-K 2/13/2023 Q4 2022 12/31/2022 SEC view
GOLUB CAPITAL DIRECT LENDING CORP CIK0001868878 8-K 2/13/2023 Q1 2023 12/31/2022 SEC view data
CORNING INC /NY GLW 10-K 2/13/2023 Q4 2022 12/31/2022 SEC view
Ridgedale Holdings Inc. RDGH 10-Q 2/13/2023 Q2 2022 12/31/2022 SEC view
Magyar Bancorp, Inc. MGYR 10-Q 2/13/2023 Q1 2023 12/31/2022 SEC view
Sensata Technologies Holding plc ST 10-K 2/13/2023 Q4 2022 12/31/2022 SEC view
UDR, Inc. UDR 10-K 2/13/2023 Q4 2022 12/31/2022 SEC view
RJD Green, Inc. RJDG WIREPR 2/13/2023 Q1 2023 11/28/2022 WIRE view data
Appreciate Holdings, Inc. PTIC S-1/A 2/13/2023 Q3 2022 9/30/2022 SEC view
BF Garden Tax Credit Fund IV L.P. BCTCIV 10-Q 2/13/2023 Q3 2023 12/31/2022 SEC view
BF Garden Tax Credit Fund V L.P. BCTCFV 10-Q 2/13/2023 Q3 2023 12/31/2022 SEC view
Streetex Corp. CIK0001822372 10-Q 2/13/2023 Q2 2023 12/31/2022 SEC view
KINETIC GROUP INC. CIK0001696195 10-Q 2/13/2023 Q1 2023 12/31/2022 SEC view
PISMO COAST VILLAGE INC PISMO 10-Q 2/13/2023 Q1 2023 12/31/2022 SEC view
Worldwide NFT Inc. WNFT 10-Q 2/13/2023 Q2 2023 12/31/2022 SEC view
Appreciate Holdings, Inc. PTIC S-1/A 2/13/2023 Q3 2022 9/30/2022 SEC view
MAXIMUS, INC. MMS 8-K 2/13/2023 Q1 2023 12/31/2022 SEC view data
Organic Agricultural Co Ltd CIK0001749849 10-Q 2/13/2023 Q3 2023 12/31/2022 SEC view
Cleartronic, Inc. CLRI 10-Q 2/13/2023 Q1 2023 12/31/2022 SEC view
SECTOR 10, Inc. SECI 10-Q 2/13/2023 Q3 2023 12/31/2022 SEC view
Heyu Biological Technology Corp HYBT 10-Q 2/13/2023 Q3 2022 9/30/2022 SEC view
GRUPO SIMEC, S.A.B. de C.V. SIM WIREPR 2/13/2023 Q4 2022 12/31/2022 WIRE view data
GOODYEAR TIRE & RUBBER CO /OH/ GT 10-K 2/13/2023 Q4 2022 12/31/2022 SEC view
Oconee Federal Financial Corp. OFED 10-Q 2/13/2023 Q2 2023 12/31/2022 SEC view
ASTROTECH Corp ASTC 8-K 2/13/2023 Q2 2023 12/31/2022 SEC view data
ZyVersa Therapeutics, Inc. ZVSA S-1/A 2/13/2023 Q3 2022 9/30/2022 SEC view
Alexanders Inc ALX WIREPR 2/13/2023 Q4 2022 12/31/2022 WIRE view data
China Health Industries Holdings, Inc. CHHE 10-Q 2/13/2023 Q2 2023 12/31/2022 SEC view
S&W Seed Co SANW 10-Q 2/13/2023 Q2 2023 12/31/2022 SEC view
TEL INSTRUMENT ELECTRONICS CORP TIK 10-Q 2/13/2023 Q3 2023 12/31/2022 SEC view
ALEXANDERS INC ALX 10-K 2/13/2023 Q4 2022 12/31/2022 SEC view
Atlis Motor Vehicles Inc NXU S-1/A 2/13/2023 Q3 2022 9/30/2022 SEC view
Western Acquisition Ventures Corp. CYCU S-4 2/13/2023 Q3 2022 9/30/2022 SEC view
Benitec Biopharma Inc. BNTC 10-Q 2/13/2023 Q2 2023 12/31/2022 SEC view
Sonnet BioTherapeutics Holdings, Inc. SONN 10-Q 2/13/2023 Q1 2023 12/31/2022 SEC view
Achison Inc CIK0001672571 10-Q 2/13/2023 Q3 2022 12/31/2022 SEC view
S&W Seed Co SANW 8-K 2/13/2023 Q2 2023 12/31/2022 SEC view data
Jerash Holdings JRSH 8-K 2/13/2023 Q3 2023 12/31/2022 SEC view data
Benitec Biopharma Inc. BNTC 8-K 2/13/2023 Q2 2023 12/31/2022 SEC view data
EuroDry Ltd. EDRY WIREPR 2/13/2023 Q4 2022 12/31/2022 WIRE view data
Sonnet BioTherapeutics Holdings, Inc. SONN 8-K 2/13/2023 Q1 2023 12/31/2022 SEC view data
Roivant Sciences Ltd. ROIV 10-Q 2/13/2023 Q3 2022 12/31/2022 SEC view
Fidelity National Information Services, Inc. FIS 8-K 2/13/2023 Q4 2022 12/31/2022 SEC view data
Roivant Sciences Ltd. ROIV 8-K 2/13/2023 Q3 2022 12/31/2022 SEC view data
XPO, Inc. XPO 10-K 2/13/2023 Q4 2022 12/31/2022 SEC view
Green Giant Inc. GGE 10-Q 2/13/2023 Q1 2023 12/31/2022 SEC view
TERADATA CORP /DE/ TDC 8-K 2/13/2023 Q4 2022 12/31/2022 SEC view data
TreeHouse Foods, Inc. THS 8-K 2/13/2023 Q4 2022 12/31/2022 SEC view data
BLUE OWL CAPITAL INC. OWL 8-K 2/13/2023 Q4 2022 12/31/2022 SEC view data
monday.com Ltd. MNDY WIREPR 2/13/2023 Q4 2022 12/31/2022 WIRE view data
Rexford Industrial Realty, Inc. REXR 10-K 2/13/2023 Q4 2022 12/31/2022 SEC view
Golden Star Resource Corp. GLNS 10-Q 2/13/2023 Q2 2023 12/31/2022 SEC view
Ladder Capital Corp LADR 10-K 2/13/2023 Q4 2022 12/31/2022 SEC view
Shengshi Elevator International Holding Group Inc. SSDT 10-Q 2/13/2023 Q3 2020 9/30/2020 SEC view
Shengshi Elevator International Holding Group Inc. SSDT 10-Q 2/13/2023 Q2 2020 6/30/2020 SEC view
Shengshi Elevator International Holding Group Inc. SSDT 10-Q 2/13/2023 Q1 2020 3/31/2020 SEC view
Permex Petroleum Corp OILCF 10-K 2/13/2023 Q4 2022 9/30/2022 SEC view
Enphase Energy, Inc. ENPH 10-K 2/13/2023 Q4 2022 12/31/2022 SEC view
Dingdong (Cayman) Ltd DDL WIREPR 2/13/2023 Q4 2022 12/31/2022 WIRE view data
Check Point Software Technologies Ltd CHKP WIREPR 2/13/2023 Q4 2022 12/31/2022 WIRE view data